{"data":{"norad_id":62583,"epoch":"2026-05-25T02:39:04.989024Z","epoch_age_seconds":69462,"freshness":"FRESH","line1":"1 62583U 25007J   26145.11047441 -.00000044  00000+0  91232-4 0  9997","line2":"2 62583  54.9855  13.2823 0012835  53.5273 306.6864 13.80602919 71522","mean_motion":13.80602919,"eccentricity":0.0012835,"inclination_deg":54.9855,"raan_deg":13.2823,"arg_perigee_deg":53.5273,"mean_anomaly_deg":306.6864,"bstar":9.1232e-5,"rev_number":7152,"period_min":104.30225665777,"perigee_km":952.32828635531,"apogee_km":971.16977379451,"semimajor_km":7339.8860300749,"source":"CELESTRAK","updated_at":"2026-05-25T13:38:03.091933Z"}}